www.pogodaiklimat.ru

Погода и климат >> Архив погоды >> Мексика >> Hermosillo


ПОГОДА в Hermosillo

  • Прогноз погоды в Hermosillo
  • Монитор погоды в Hermosillo
  • Климат города

АРХИВ ПОГОДЫ в Hermosillo

Время (UTC), дата Ветер
(напр.,м/с)
 
Видим.   Явления Облачность Т
(С)
Тd
(С)
f
(%)
Тe
(С)
Тes
(С)
Комфортность P
(гПа)
Po
(гПа)
Тmin
(С)
Tmax
(С)
R
(мм)
R24
(мм)
S
(см)
03 11.11 З 3 8000 м ясно +26.2 +11.2 39 +27 +27 жарко 1011.4 987.2
06 11.11 З 1 8000 м ясно +22.6 +12.2 52 +25 +25 комфорт 1012.0 987.7 +15.5 +34.5
00 13.11 З 1 12 км 9/0
[Ci sp]
+33.4 +9.8 24 +33 +33 жарко 1010.6 987.2 +16.0 +35.5
15 13.11 В 2 12 км 4/0
[Ci sp]
+17.0 +8.0 55 +17 +18 1016.0 991.3
18 13.11 СВ 1 12 км 8/4 900 м
[Sc diur, vesp Ci sp]
+30.0 +3.0 18 +28 +33 жарко 1015.2 991.2 +16.0 +30.0
21 13.11 ЮЗ 1 12 км 9/5 900 м
[Sc Ci sp]
+32.2 +6.1 20 +30 +34 жарко 1012.7 988.8
00 14.11 ЮЗ 1 12 км 9/9 600 м
[Sc]
+31.4 +8.4 24 +30 +30 жарко 1011.9 988.1 +16.0 +33.0
03 14.11 З 2 8000 м 3/0
[Ci fib]
+26.6 +7.7 30 +26 +26 жарко 1013.2 989.2
09 14.11 В 1 8000 м ясно +17.4 +2.7 37 +18 +18 1013.8 989.1
15 14.11 СВ 1 12 км 8/0
[Ci sp]
+14.0 +5.6 57 +15 +15 1015.8 990.6
18 14.11 СВ 1 12 км 1/0
[Ci fib]
+29.6 +8.5 27 +29 +38 жарко 1014.6 990.3 +14.0 +29.6
21 14.11 ЮЗ 1 12 км 1/0
[Ci fib]
+36.0 +5.1 15 +33 +42 жарко 1010.9 987.0
00 15.11 ЮЗ 1 12 км 3/0
[Ci fib]
+34.4 +7.9 20 +33 +33 жарко 1009.5 985.7 +14.0 +37.0
03 15.11 З 3 8000 м ясно +28.4 +14.9 44 +31 +31 душно 1013.1 989.1
06 15.11 В 1 8000 м ясно +23.4 +9.1 40 +25 +25 комфорт 1011.6 987.6 +14.0 +37.0
15 15.11 В 1 12 км 4/4 900 м
[Sc diur, vesp]
+15.4 +3.5 45 +16 +17 1013.7 988.8
18 15.11 В 1 12 км 4/4 900 м
[Sc diur, vesp]
+29.4 +6.1 23 +28 +34 жарко 1013.4 989.3 +15.0 +29.4
21 15.11 ЮЗ 1 12 км 3/0
[Ci fib]
+34.4 +7.9 20 +33 +41 жарко 1010.5 986.6
00 16.11 ЮЗ 1 12 км 3/0
[Ci fib]
+35.0 +6.8 18 +33 +33 жарко 1009.7 985.9 +15.0 +36.0
03 16.11 ЮЗ 1 8000 м ясно +27.6 +3.3 21 +26 +26 жарко 1010.9 987.1
06 16.11 В 2 8000 м ясно +22.8 +6.3 34 +23 +23 комфорт 1011.6 987.7 +15.0 +36.0
15 16.11 В 1 12 км ясно +14.0 +1.5 43 +15 +15 1014.4 989.3
18 16.11 СВ 1 12 км ясно +28.6 +5.8 24 +27 +37 жарко 1011.8 989.7 +13.5 +28.6
21 16.11 З 1 12 км ясно +34.6 +3.4 14 +32 +40 жарко 1009.7 985.9
00 17.11 ЮЗ 1 12 км ясно +34.2 +7.0 19 +32 +33 жарко 1010.6 986.8 +13.5 +35.5
03 17.11 З 2 8000 м ясно +27.8 +8.1 29 +28 +28 жарко 1012.1 988.3
06 17.11 СВ 1 8000 м ясно +22.6 +8.8 41 +24 +24 комфорт 1013.1 989.2 +13.5 +35.5
15 17.11 СВ 1 12 км 1/1 900 м
[Sc diur, vesp]
+13.0 +3.3 52 +13 +14 1016.5 991.4
18 17.11 СВ 1 12 км 1/1 900 м
[Sc diur, vesp]
+27.0 +8.3 31 +27 +35 жарко 1016.2 991.9 +13.0 +27.0

 

Местоположение метеостанции Hermosillo (Мексика): широта 29.09 долгота -111.05 высота над уровнем моря 191 м.

В архиве по умолчанию представлена погода в Hermosillo за последнюю неделю. Архивные данные за месяц целиком и за предыдущие месяцы, начиная с января 2011 года, Вы можете получить, выбрав интересующий диапазон дат из раскрывающегося списка и нажав кнопку "Ввод!".

Внимание! Время в таблицах - всемирное. Для получения местного времени необходимо прибавить поправку, которая в Hermosillo равна -7 ч.

Смотрите также архив погоды в соседних городах и на ближайших метеорологических станциях:

Погода в Hermosillo la Magna (Мексика) (10 км)
Погода в Guaymas (Мексика) (131 км)
Погода в Empalme (Мексика) (131 км)
Погода в Pilares de Nacoz (Мексика) (194 км)
Погода в Altar Son (Мексика) (196 км)
Погода в Ciudad Obregon (Мексика) (224 км)
Погода в Santa Rosalia (Мексика) (233 км)
Погода в Temosachic (Мексика) (316 км)
Погода в Nueva Casas Grandes (Мексика) (336 км)
Погода в Loreto (Мексика) (342 км)

Пояснения к столбцам:

Ветер - указаны скорость ветра в м/с - средняя за 10 мин, порывы в срок и между сроками (в фигурных скобках) и направление, откуда дует ветер: С - северный, СВ - северо-восточный, В - восточный, ЮВ - юго-восточный, Ю - южный, ЮЗ - юго-западный, З - западный, СЗ - северо-западный.
Видимость - горизонтальная дальность видимости в метрах или километрах. При видимости от 1 до 10 км при отсутствии осадков обычно наблюдается дымка, при ухудшении видимости до 1 км и менее - туман. В сухую погоду видимость может ухудшаться дымом, пылью или мглою.
Явления - указаны атмосферные явления, наблюдавшиеся в срок или в последний час перед сроком; фигурными скобками обозначены явления, наблюдавшиеся между сроками (за 1-3 часа до срока); квадратными скобками обозначены град или гололедные отложения с указанием их диаметра в мм.
Облачность - указаны через наклонную черту общая и нижняя облачность в баллах и высота нижней границы облаков в метрах; квадратными скобками обозначены формы облаков: Ci - перистые, Cs - перисто-слоистые, Cc - перисто-кучевые, Ac - высококучевые, As - высокослоистые, Sc - слоисто-кучевые, Ns - слоисто-дождевые, Cu - кучевые, Cb - кучево-дождевые. Подробнее классификацию облаков см. в Атласе облаков (PDF).
T - Температура воздуха - температура, измеренная на высоте 2 м над землей.
Td - Температура точки росы - температура, при понижении до которой содержащийся в воздухе водяной пар достигнет насыщения.
f - Относительная влажность воздуха - влажноcть воздуха, измеренная на высоте 2 м над землей.
Te - Эффективная температура - температура, которую ощущает одетый по сезону человек в тени. Характеристика душности погоды. При расчете учитывается влияние влажности воздуха и скорости ветра на теплоощущения человека.
Tes - Эффективная температура на солнце - температура, которую ощущает человек, с поправкой на солнечный нагрев. Характеристика знойности погоды. Зависит от высоты солнца над горизонтом, облачности и скорости ветра. Ночью, в пасмурную погоду, а также при ветре 12 м/с и более поправка равна нулю.
P - Атмосферное давление - приведенное к уровню моря атмосферное давление.
Po - Атмосферное давление - измеренное на уровне метеостанции атмосферное давление.
Tmin - Минимальная температура - минимум температуры воздуха на высоте 2 м над землей.
Tmax - Максимальная температура - максимум температуры воздуха на высоте 2 м над землей.
R - Количество осадков - Количество выпавших осадков за период времени, мм. При наведении курсора мыши на число - период времени, за который выпало указанное количество осадков.
R24 - Количество осадков - Количество выпавших осадков за 24 часа, мм.
S - Снежный покров - Высота снежного покрова, см. При наведении курсора мыши на число - состояние снежного покрова и степень покрытия местности в баллах.